Location: Boiro
(42.6475°N, 8.8834°W)
Time: 18:33:40
(UTC+02:00)

Transit 4A - Visible Passes

Search period start: 25 July 2024 00:00
Search period end: 04 August 2024 00:00
Orbit: 869 x 973 km, 66.8° (Epoch: 24 July)

Date Brightness Start Highest point End Pass type
(mag) Time Alt. Az. Time Alt. Az. Time Alt. Az.
25 Jul 8.6 01:34:45 10° NNW 01:40:31 45° NE 01:42:21 35° E visible
25 Jul 8.9 03:21:20 10° NW 03:25:48 32° W 03:25:48 32° W visible
25 Jul 10.1 23:58:40 10° N 00:02:06 15° NE 00:05:33 10° ENE visible
26 Jul 8.1 01:43:38 10° NNW 01:49:38 63° NE 01:50:45 54° ESE visible
26 Jul 9.4 03:30:54 10° WNW 03:34:13 21° W 03:34:13 21° W visible
27 Jul 9.8 00:07:11 10° N 00:11:32 20° NE 00:15:45 11° E visible
27 Jul 7.7 01:52:36 10° NNW 01:58:42 88° ENE 01:59:13 76° SE visible
27 Jul 9.9 03:40:56 10° WNW 03:42:41 14° W 03:42:41 14° W visible
28 Jul 9.4 00:15:51 10° NNW 00:20:53 26° NE 00:24:15 17° E visible
28 Jul 7.9 02:01:40 10° NW 02:07:40 65° WSW 02:07:43 65° WSW visible
29 Jul 8.9 00:24:37 10° NNW 00:30:08 36° NE 00:32:48 25° E visible
29 Jul 8.5 02:10:51 10° NW 02:16:16 44° WSW 02:16:16 44° WSW visible
29 Jul 10.1 22:48:54 10° N 22:51:29 13° NNE 22:54:06 10° ENE visible
30 Jul 8.4 00:33:27 10° NNW 00:39:20 49° NE 00:41:24 36° ESE visible
30 Jul 9.1 02:20:13 10° NW 02:24:52 30° W 02:24:52 30° W visible
30 Jul 9.9 22:57:15 10° N 23:00:59 17° NE 23:04:47 10° ENE visible
31 Jul 7.9 00:42:22 10° NNW 00:48:26 70° ENE 00:50:01 50° ESE visible
31 Jul 9.6 02:29:52 10° WNW 02:33:30 20° W 02:33:30 20° W visible
31 Jul 9.5 23:05:49 10° N 23:10:24 22° NE 23:15:02 10° E visible
01 Aug 7.8 00:51:20 10° NNW 00:57:27 83° WSW 00:58:42 59° SSE visible
01 Aug 10.0 02:40:13 10° WNW 02:42:10 13° W 02:42:10 13° W visible
01 Aug 9.1 23:14:31 10° NNW 23:19:44 29° NE 23:23:56 14° E visible
02 Aug 8.1 01:00:26 10° NW 01:06:24 58° WSW 01:07:24 52° SSW visible
02 Aug 8.7 23:23:17 10° NNW 23:28:57 39° NE 23:32:41 20° ESE visible
03 Aug 8.6 01:09:40 10° NW 01:15:17 39° WSW 01:16:10 37° SW visible
03 Aug 8.2 23:32:09 10° NNW 23:38:06 55° NE 23:41:28 26° ESE visible
